When you browse on this site, cookies collect data to enhance your experience and personalize the content and advertising you see.
Visit our Privacy Policy to learn more. By continuing to use the site, you agree to this use of cookies and data.
  • In Hungary
  • List of Countries
  • For 7 days
  • Water Temperature
  • Weather Map
  • News
  • Weather Widgets
  • user-avatar
    Login

    Hourly Weather Belaya Kalitva

    Today, 18 November, Monday

    Time Temperature Precipitation Wind Pressure Humidity
    00:00 +3°C° 0 mm 4 mps 767 mmHg 85%
    01:00 +3°C° 0 mm 4 mps 767 mmHg 87%
    02:00 +3°C° 0 mm 4 mps 767 mmHg 89%
    03:00 +2°C° 0 mm 3 mps 767 mmHg 91%
    04:00 +2°C° 0 mm 3 mps 766 mmHg 92%
    05:00 +2°C° 0 mm 3 mps 766 mmHg 93%
    06:00 +1°C° 0 mm 3 mps 766 mmHg 94%
    07:00 +1°C° 0 mm 4 mps 766 mmHg 92%
    08:00 +3°C° 0 mm 4 mps 766 mmHg 90%
    09:00 +2°C° 0 mm 5 mps 766 mmHg 88%
    10:00 +5°C° 0 mm 5 mps 766 mmHg 81%
    11:00 +6°C° 0 mm 5 mps 766 mmHg 73%
    12:00 +8°C° 0 mm 5 mps 766 mmHg 65%
    13:00 +8°C° 0 mm 5 mps 765 mmHg 63%
    14:00 +9°C° 0 mm 5 mps 765 mmHg 60%
    15:00 +10°C° 0 mm 4 mps 765 mmHg 58%
    16:00 +8°C° 0 mm 4 mps 765 mmHg 64%
    17:00 +6°C° 0 mm 4 mps 765 mmHg 69%
    18:00 +5°C° 0 mm 3 mps 765 mmHg 75%
    19:00 +4°C° 0 mm 3 mps 765 mmHg 76%
    20:00 +4°C° 0 mm 3 mps 765 mmHg 78%
    21:00 +3°C° 0 mm 3 mps 765 mmHg 79%
    22:00 +3°C° 0 mm 3 mps 765 mmHg 80%
    23:00 +4°C° 0 mm 2 mps 765 mmHg 82%

    Tomorrow, 19 November, Tuesday

    Time Temperature Precipitation Wind Pressure Humidity
    00:00 +3°C° 0 mm 2 mps 765 mmHg 83%
    01:00 +3°C° 0 mm 2 mps 765 mmHg 85%
    02:00 +3°C° 0 mm 2 mps 765 mmHg 86%
    03:00 +3°C° 0 mm 2 mps 765 mmHg 87%
    04:00 +3°C° 0 mm 2 mps 765 mmHg 88%
    05:00 +2°C° 0 mm 2 mps 765 mmHg 88%
    06:00 +2°C° 0 mm 2 mps 765 mmHg 89%
    07:00 +3°C° 0 mm 2 mps 765 mmHg 87%
    08:00 +3°C° 0 mm 2 mps 765 mmHg 85%
    09:00 +4°C° 0 mm 2 mps 766 mmHg 82%
    10:00 +5°C° 0 mm 2 mps 765 mmHg 76%
    11:00 +7°C° 0 mm 3 mps 765 mmHg 69%
    12:00 +9°C° 0 mm 3 mps 765 mmHg 62%
    13:00 +9°C° 0 mm 3 mps 765 mmHg 60%
    14:00 +10°C° 0 mm 2 mps 765 mmHg 58%
    15:00 +10°C° 0 mm 2 mps 765 mmHg 56%
    16:00 +9°C° 0 mm 2 mps 765 mmHg 62%
    17:00 +7°C° 0 mm 2 mps 765 mmHg 67%
    18:00 +6°C° 0 mm 2 mps 765 mmHg 72%
    19:00 +5°C° 0 mm 2 mps 765 mmHg 74%
    20:00 +4°C° 0 mm 2 mps 765 mmHg 75%
    21:00 +4°C° 0 mm 2 mps 765 mmHg 77%
    22:00 +3°C° 0 mm 2 mps 765 mmHg 76%
    23:00 +3°C° 0 mm 2 mps 765 mmHg 76%

    Day after tomorrow, 20 November, Wednesday

    Time Temperature Precipitation Wind Pressure Humidity
    00:00 +2°C° 0 mm 2 mps 765 mmHg 76%
    01:00 +2°C° 0 mm 2 mps 765 mmHg 74%
    02:00 +1°C° 0 mm 3 mps 765 mmHg 72%
    03:00 0°C° 0 mm 3 mps 765 mmHg 70%
    04:00 0°C° 0 mm 3 mps 765 mmHg 68%
    05:00 0°C° 0 mm 3 mps 765 mmHg 67%
    06:00 -1°C° 0 mm 3 mps 765 mmHg 66%
    07:00 -1°C° 0 mm 4 mps 766 mmHg 68%
    08:00 -1°C° 0 mm 4 mps 766 mmHg 71%
    09:00 0°C° 0 mm 4 mps 766 mmHg 73%
    10:00 +1°C° 0 mm 5 mps 766 mmHg 71%
    11:00 +3°C° 0 mm 5 mps 766 mmHg 69%
    12:00 +4°C° 0 mm 6 mps 767 mmHg 67%
    13:00 +4°C° 0 mm 6 mps 767 mmHg 70%
    14:00 +4°C° 0 mm 7 mps 767 mmHg 72%
    15:00 +4°C° 0 mm 7 mps 767 mmHg 75%
    16:00 +3°C° 0 mm 7 mps 767 mmHg 76%
    17:00 +2°C° 0 mm 7 mps 768 mmHg 77%
    18:00 0°C° 0 mm 8 mps 768 mmHg 78%
    19:00 -1°C° 0 mm 8 mps 768 mmHg 73%
    20:00 -2°C° 0 mm 8 mps 769 mmHg 68%
    21:00 -4°C° 0 mm 8 mps 770 mmHg 62%
    22:00 -5°C° 0 mm 8 mps 770 mmHg 62%
    23:00 -6°C° 0 mm 8 mps 770 mmHg 62%

    21 November, Thursday

    Time Temperature Precipitation Wind Pressure Humidity
    00:00 -7°C° 0 mm 7 mps 770 mmHg 61%
    01:00 -7°C° 0 mm 7 mps 771 mmHg 60%
    02:00 -8°C° 0 mm 7 mps 771 mmHg 59%
    03:00 -9°C° 0 mm 7 mps 771 mmHg 58%
    04:00 -11°C° 0 mm 7 mps 772 mmHg 57%
    05:00 -11°C° 0 mm 7 mps 772 mmHg 57%
    06:00 -12°C° 0 mm 7 mps 772 mmHg 56%
    07:00 -11°C° 0 mm 7 mps 772 mmHg 54%
    08:00 -11°C° 0 mm 8 mps 773 mmHg 52%
    09:00 -11°C° 0 mm 8 mps 773 mmHg 51%
    10:00 -10°C° 0 mm 8 mps 773 mmHg 47%
    11:00 -8°C° 0 mm 8 mps 773 mmHg 44%
    12:00 -7°C° 0 mm 8 mps 773 mmHg 41%
    13:00 -7°C° 0 mm 8 mps 773 mmHg 39%
    14:00 -7°C° 0 mm 8 mps 773 mmHg 38%
    15:00 -7°C° 0 mm 8 mps 772 mmHg 36%
    16:00 -8°C° 0 mm 8 mps 773 mmHg 36%
    17:00 -9°C° 0 mm 7 mps 773 mmHg 37%
    18:00 -11°C° 0 mm 7 mps 773 mmHg 37%
    19:00 -11°C° 0 mm 7 mps 773 mmHg 38%
    20:00 -11°C° 0 mm 7 mps 773 mmHg 39%
    21:00 -11°C° 0 mm 7 mps 774 mmHg 39%
    22:00 -11°C° 0 mm 7 mps 774 mmHg 40%
    23:00 -12°C° 0 mm 7 mps 774 mmHg 40%

    22 November, Friday

    Time Temperature Precipitation Wind Pressure Humidity
    00:00 -12°C° 0 mm 7 mps 774 mmHg 40%
    01:00 -12°C° 0 mm 7 mps 773 mmHg 42%
    02:00 -12°C° 0 mm 7 mps 773 mmHg 44%
    03:00 -12°C° 0 mm 7 mps 773 mmHg 45%
    04:00 -12°C° 0 mm 7 mps 773 mmHg 47%
    05:00 -12°C° 0 mm 7 mps 773 mmHg 48%
    06:00 -12°C° 0 mm 7 mps 773 mmHg 50%
    07:00 -12°C° 0 mm 7 mps 773 mmHg 48%
    08:00 -11°C° 0 mm 8 mps 774 mmHg 47%
    09:00 -11°C° 0 mm 8 mps 774 mmHg 46%
    10:00 -8°C° 0 mm 8 mps 774 mmHg 41%
    11:00 -8°C° 0 mm 9 mps 773 mmHg 36%
    12:00 -5°C° 0 mm 9 mps 773 mmHg 31%
    13:00 -5°C° 0 mm 9 mps 773 mmHg 30%
    14:00 -5°C° 0 mm 8 mps 772 mmHg 30%
    15:00 -5°C° 0 mm 8 mps 772 mmHg 29%
    16:00 -6°C° 0 mm 8 mps 772 mmHg 32%
    17:00 -7°C° 0 mm 7 mps 772 mmHg 35%
    18:00 -8°C° 0 mm 6 mps 772 mmHg 38%
    19:00 -8°C° 0 mm 7 mps 772 mmHg 39%
    20:00 -8°C° 0 mm 7 mps 772 mmHg 40%
    21:00 -8°C° 0 mm 7 mps 772 mmHg 42%
    22:00 -8°C° 0 mm 7 mps 772 mmHg 43%
    23:00 -8°C° 0 mm 7 mps 772 mmHg 44%

    23 November, Saturday

    Time Temperature Precipitation Wind Pressure Humidity
    00:00 -9°C° 0 mm 7 mps 772 mmHg 45%
    01:00 -9°C° 0 mm 7 mps 771 mmHg 46%
    02:00 -9°C° 0 mm 7 mps 771 mmHg 47%
    03:00 -9°C° 0 mm 7 mps 771 mmHg 48%
    04:00 -9°C° 0 mm 7 mps 771 mmHg 49%
    05:00 -9°C° 0 mm 7 mps 771 mmHg 51%
    06:00 -9°C° 0 mm 7 mps 771 mmHg 53%
    07:00 -8°C° 0 mm 7 mps 771 mmHg 53%
    08:00 -8°C° 0 mm 8 mps 771 mmHg 54%
    09:00 -8°C° 0 mm 8 mps 771 mmHg 54%
    10:00 -7°C° 0 mm 8 mps 770 mmHg 52%
    11:00 -6°C° 0 mm 8 mps 770 mmHg 51%
    12:00 -5°C° 0 mm 8 mps 770 mmHg 49%
    13:00 -4°C° 0 mm 8 mps 770 mmHg 49%
    14:00 -4°C° 0 mm 8 mps 770 mmHg 48%
    15:00 -4°C° 0 mm 8 mps 769 mmHg 48%
    16:00 -4°C° 0 mm 7 mps 769 mmHg 50%
    17:00 -4°C° 0 mm 7 mps 769 mmHg 52%
    18:00 -6°C° 0 mm 7 mps 769 mmHg 54%
    19:00 -6°C° 0 mm 7 mps 769 mmHg 55%
    20:00 -6°C° 0 mm 7 mps 769 mmHg 57%
    21:00 -6°C° 0 mm 7 mps 769 mmHg 58%
    22:00 -6°C° 0 mm 7 mps 769 mmHg 58%
    23:00 -6°C° 0 mm 7 mps 769 mmHg 59%
    Show more